SCP
0 0 -0 -0 1 0 1 0 0 0 0 0 0 0 0 0 0 0 0 1 1 1 1 1 1 1 1 1 1 1 1 1 1 1 1 1 1 0 0 0 0 0 0
-0 1 1 0 -0 1 0 1 1 1 1 0 0 1 0 0 0 0 0 0 1 1 1 1 1 2 2 2 2 2 2 1 1 1 1 1 1 1 1 1 1 1 0
-1 0 1 3 3 1 2 1 1 1 1 0 0 0 0 0 0 1 1 1 1 1 1 1 2 3 2 1 2 1 2 2 1 1 1 1 1 1 1 1 1 1 1
1 2 1 2 4 3 2 2 1 1 1 0 1 1 1 1 1 2 1 1 1 1 1 2 1 2 2 1 1 1 4 4 3 2 1 1 1 1 1 1 1 0 1
1 2 3 3 3 3 2 1 2 1 1 1 1 0 1 1 1 0 0 0 1 0 0 0 0 1 1 1 0 0 0 0 1 2 2 1 1 1 1 1 1 0 0
1 2 2 3 3 2 2 1 1 1 1 1 1 1 0 0 1 1 1 2 1 0 0 0 0 1 1 0 0 0 0 0 0 0 0 3 1 1 1 1 1 1 1
2 3 2 3 3 2 1 1 2 2 1 2 2 1 1 1 1 1 2 2 1 1 0 0 0 1 1 0 0 0 0 0 0 0 0 0 1 1 1 1 0 0 0
3 3 3 2 2 3 3 2 2 2 2 2 2 2 1 1 1 1 1 1 0 0 0 0 0 0 0 0 0 0 0 0 0 0 0 0 0 1 2 2 0 0 0
3 2 2 2 2 2 3 4 3 3 2 2 2 2 1 1 1 1 1 1 1 0 0 0 0 0 0 0 0 0 0 0 0 0 0 0 0 0 1 1 1 0 0
2 2 2 2 2 2 3 2 2 2 2 1 1 2 2 1 1 0 1 0 1 1 1 1 1 0 0 0 0 0 0 0 0 0 0 0 0 0 1 1 1 0 0
2 1 2 2 1 2 1 1 1 1 1 1 1 1 1 1 1 1 0 0 0 0 0 0 1 1 0 0 0 0 0 0 0 0 0 0 0 0 0 0 -0 -0 0
1 1 0 1 1 0 0 0 0 1 0 1 0 0 0 1 0 1 0 0 0 0 0 0 0 0 1 1 1 1 0 0 -0 0 0 0 0 0 0 0 0 0 0
0 0 0 0 0 0 0 0 0 0 0 0 0 0 0 0 0 0 0 0 0 0 0 0 0 0 0 0 0 0 0 0 0 0 0 0 0 0 0 0 0 0 0
0 0 0 0 0 0 0 0 0 0 0 0 0 0 0 0 0 0 0 0 0 0 0 0 0 0 0 0 0 0 0 0 0 0 0 0 0 0 0 0 0 0 0
0 0 0 0 0 0 0 0 0 0 0 0 0 0 0 0 0 0 0 0 0 0 0 0 0 0 0 0 0 0 -0 0 0 0 0 0 0 0 0 0 0 0 0
0 0 0 0 0 0 0 0 0 0 0 0 0 0 0 0 0 0 0 0 0 0 0 0 0 0 0 0 0 0 0 0 0 0 0 0 0 0 0 0 0 0 0
0 0 0 0 0 0 0 0 0 0 0 0 0 0 0 0 0 0 0 0 0 0 0 0 0 0 0 0 0 0 0 0 0 0 0 0 0 0 0 0 0 0 0
0 0 0 0 0 0 0 0 0 0 0 0 0 0 0 0 0 0 0 0 0 0 0 0 0 0 0 0 0 0 0 0 0 0 0 0 0 0 0 0 0 0 0
0 0 0 0 0 0 0 0 0 0 0 0 0 0 0 0 0 0 0 0 0 0 0 0 0 0 0 0 0 0 0 0 0 0 0 0 0 0 0 0 0 0 0
0 0 0 0 0 0 0 0 0 0 0 0 0 0 0 0 0 0 0 0 0 0 0 0 0 0 0 0 0 0 0 0 0 0 0 0 0 0 0 0 0 0 0
0 0 0 0 0 0 0 0 0 0 0 0 0 0 0 -0 0 0 0 0 0 0 0 0 0 0 0 0 0 0 0 0 0 0 0 0 0 0 0 0 0 0 0
0 0 0 0 0 0 0 0 0 0 0 0 0 0 0 0 0 0 0 -0 -0 0 0 0 0 0 0 0 0 0 0 0 0 0 0 0 0 0 0 0 0 -0 0
0 0 0 0 0 0 0 0 0 0 0 0 0 0 0 0 0 0 0 0 0 -0 0 0 0 0 0 0 0 0 0 0 0 0 0 0 0 0 0 0 0 0 0
0 0 0 0 0 0 0 0 0 0 0 0 0 0 0 0 0 0 -0 0 0 0 0 0 0 0 0 0 0 0 0 0 0 0 0 0 0 0 0 0 0 0 0
0 0 0 0 0 0 0 0 0 0 0 0 0 0 -0 0 0 -0 -0 0 0 0 0 0 0 0 0 0 0 0 0 0 0 0 0 0 0 0 0 0 0 0 0
0 0 0 0 0 0 0 0 0 0 0 0 0 0 0 0 0 -0 -0 -0 0 -0 -0 0 0 0 0 0 0 0 0 0 0 0 0 0 0 0 0 0 0 0 0
Wind_Speed_500mb
25 20 24 25 25 25 22 25 24 26 37 36 38 42 43 42 47 50 51 49 56 57 61 54 55 53 55 57 56 55 56 54 54 51 46 47 49 49 48 48 47 47 42
28 26 24 28 28 23 21 26 23 21 25 30 33 36 41 49 52 50 52 54 52 57 56 56 51 54 56 59 60 62 64 62 57 55 52 49 48 47 46 45 45 48 48
27 32 22 20 17 18 22 32 34 37 40 40 42 41 38 43 50 55 48 55 41 52 57 61 59 55 58 63 59 64 67 64 58 54 53 47 45 47 45 44 44 45 45
36 37 31 22 12 25 24 27 25 36 36 35 40 41 40 47 54 53 46 53 57 57 64 59 41 54 60 64 71 69 67 68 65 59 52 46 47 46 41 38 36 36 38
28 32 16 13 20 31 39 33 27 30 35 39 41 40 47 53 57 61 66 56 64 67 83 60 68 61 72 75 77 78 75 77 76 66 50 47 44 42 39 34 32 33 33
17 24 16 23 26 28 27 32 38 43 47 49 53 54 55 57 62 57 49 60 74 72 72 61 66 74 68 76 79 66 69 66 70 71 59 35 41 38 37 38 35 34 33
21 25 23 23 26 29 32 32 35 41 46 43 48 55 58 63 67 65 65 62 61 60 56 50 44 49 57 66 71 72 72 70 75 78 73 34 27 29 33 39 38 40 40
19 23 25 29 28 25 27 32 34 37 41 34 41 52 41 54 52 25 32 40 46 51 48 38 46 51 55 57 61 72 76 81 75 79 78 83 61 56 36 44 52 54 51
27 24 19 19 24 28 10 25 31 34 38 38 27 31 27 18 41 45 30 44 46 53 44 45 49 53 52 55 53 48 51 68 85 80 79 84 93 63 58 53 54 66 64
27 22 15 18 20 14 21 29 32 34 38 37 38 37 34 42 43 44 56 61 54 46 47 52 59 63 63 65 61 41 38 32 37 55 67 80 95 78 49 44 54 76 79
23 23 17 16 14 15 23 22 22 26 25 26 26 33 40 45 47 44 53 55 60 64 69 64 52 57 60 57 53 57 55 51 44 29 36 30 24 39 48 57 73 92 89
22 17 11 9 10 15 20 23 23 24 26 28 30 33 31 36 44 46 58 64 62 61 54 58 59 52 56 62 64 66 73 58 80 64 73 80 66 68 75 80 88 90 92
14 13 8 9 15 19 20 21 22 25 27 33 37 37 36 37 39 39 48 59 54 55 55 48 49 47 40 39 46 48 47 49 57 60 68 69 74 77 78 81 88 89 89
13 4 7 10 12 15 20 22 21 27 33 35 34 35 35 32 35 37 42 48 59 54 54 57 52 58 62 66 55 55 56 44 46 50 60 69 75 82 89 91 97 101 98
3 4 7 12 18 22 26 29 25 24 34 35 34 33 39 42 34 43 44 41 48 57 56 57 62 54 54 64 71 74 76 79 80 82 85 90 95 92 84 78 76 74 76
2 7 12 16 20 24 29 35 33 30 28 31 37 38 36 42 44 39 39 43 47 55 58 53 56 70 66 66 66 70 73 73 76 77 80 78 70 68 72 78 81 83 79
6 10 14 17 19 20 28 34 33 25 33 35 36 35 38 37 37 41 43 40 44 51 63 69 65 65 68 71 71 68 69 76 78 81 75 80 83 77 80 80 76 62 59
8 10 14 16 16 19 27 22 18 24 23 28 36 39 40 45 41 39 41 45 49 52 57 71 75 80 82 77 72 66 67 62 69 73 73 75 81 86 83 77 64 61 60
11 14 16 18 18 13 17 23 33 40 35 25 33 39 36 34 35 39 42 50 54 59 61 68 79 74 75 72 70 72 73 75 75 76 77 72 72 80 79 81 72 66 60
14 17 16 7 11 25 28 30 35 37 34 27 29 31 22 31 39 42 50 54 56 61 60 61 65 64 70 76 77 81 83 74 78 80 68 63 56 49 51 54 50 50 53
8 0 7 17 16 26 28 30 30 31 24 25 25 28 23 24 29 43 53 55 52 50 54 56 61 65 71 78 86 79 82 80 85 78 68 62 58 53 48 49 54 48 43
10 13 13 21 21 26 25 29 32 31 23 26 28 26 24 30 41 47 48 35 38 44 43 47 57 61 75 72 78 77 79 72 60 63 62 54 45 46 44 50 65 75 74
16 16 21 24 25 24 25 29 31 29 25 26 19 20 30 36 44 48 50 58 42 35 35 42 52 60 69 69 66 65 71 65 59 55 48 59 44 46 48 51 46 39 41
14 17 21 22 24 21 26 29 31 27 22 16 21 27 31 42 40 47 51 58 54 58 45 40 42 43 52 56 54 51 66 69 60 48 44 42 50 56 61 43 41 51 45
15 18 21 22 18 24 25 31 34 28 15 17 18 25 31 38 34 46 51 58 59 55 63 50 31 29 44 54 53 50 50 66 69 55 55 54 55 69 81 56 77 59 49
14 16 16 23 25 24 25 31 35 27 19 18 18 22 22 23 29 45 53 57 60 59 60 66 54 37 38 45 59 57 54 55 66 46 58 58 71 75 49 55 58 55 43
Wind_Direction_500mb
203 223 203 231 272 294 296 300 293 286 287 287 279 279 288 279 279 277 276 274 282 291 291 290 297 293 281 277 274 270 269 268 270 267 265 269 271 269 268 269 268 266 264
196 227 213 217 232 228 255 271 269 269 266 272 277 280 283 285 283 279 273 272 275 277 290 291 290 293 295 278 272 270 267 266 263 265 264 266 268 268 268 267 267 266 267
209 225 219 229 246 266 267 274 276 281 284 281 286 291 293 285 281 280 285 275 268 290 286 289 290 284 279 281 277 270 265 262 262 261 265 264 265 268 269 269 269 266 266
213 223 224 222 242 261 254 259 270 283 281 289 286 286 282 284 284 278 281 292 289 286 291 275 299 289 289 285 280 276 267 259 254 251 257 260 264 265 263 265 267 266 268
234 230 230 222 267 261 269 294 293 278 280 285 296 300 289 286 282 285 281 283 284 288 282 326 304 288 286 279 278 277 272 265 254 241 242 253 258 260 264 261 264 270 270
238 240 233 229 253 270 267 277 282 282 287 295 295 288 282 280 280 292 292 285 293 296 297 310 293 298 292 291 284 277 272 264 255 244 232 250 254 254 262 269 271 271 271
208 237 243 246 255 267 284 297 298 296 297 303 303 300 295 289 286 284 289 289 294 304 303 302 309 322 319 300 285 279 275 272 270 264 248 221 272 267 265 281 278 272 276
219 216 235 239 257 269 289 299 299 298 296 301 298 303 305 304 310 296 287 288 294 302 309 305 312 319 323 319 302 283 279 274 265 264 258 229 233 235 229 265 281 278 275
216 230 240 250 260 273 286 276 285 292 296 301 309 296 297 290 303 304 294 301 300 303 310 311 310 310 314 314 315 315 300 292 270 262 261 251 232 225 238 236 269 277 276
210 228 243 253 278 287 278 285 284 290 300 302 294 290 289 292 294 297 296 300 312 305 303 308 306 302 302 312 307 300 297 300 297 281 274 257 241 227 242 247 271 273 271
202 218 228 254 276 262 280 293 297 307 308 308 314 312 307 307 304 300 302 303 296 295 299 305 300 306 307 307 301 300 290 283 280 277 278 271 245 239 249 256 255 261 261
200 204 217 244 262 282 301 304 309 307 313 309 312 307 306 312 314 314 310 309 308 302 298 301 308 312 298 306 303 304 294 271 261 258 251 254 253 252 254 255 260 265 267
220 188 217 274 308 312 315 317 319 309 310 307 309 308 305 294 293 298 309 307 308 313 314 318 318 313 309 308 315 320 313 303 289 283 279 275 269 266 266 269 270 269 267
218 243 297 314 323 325 322 321 324 315 311 316 319 321 321 325 309 300 307 312 315 312 311 310 305 299 295 300 303 299 302 294 294 287 281 278 277 279 278 279 276 274 271
36 31 345 338 335 329 328 327 329 324 314 326 329 326 311 315 319 305 311 313 313 313 313 311 310 314 305 299 296 296 297 297 298 294 291 288 287 288 287 286 285 281 276
174 1 348 341 342 339 330 328 333 342 347 323 329 332 337 325 324 330 320 313 309 304 300 313 309 305 310 309 309 310 308 305 302 302 300 299 295 294 288 289 291 291 287
33 355 349 349 351 345 325 340 351 347 342 340 338 333 327 322 321 317 317 314 312 307 312 304 308 312 313 317 316 315 308 311 308 304 299 291 291 288 284 285 288 284 281
17 10 356 1 357 348 356 340 310 317 318 319 316 312 314 315 315 318 317 319 317 317 316 312 315 319 321 324 324 324 323 316 317 312 303 295 286 282 281 290 281 285 280
17 9 1 16 4 315 305 303 317 326 323 316 312 315 323 333 326 324 322 321 318 318 319 318 318 321 323 327 331 329 329 327 322 319 318 309 296 283 281 281 278 276 284
31 28 14 311 318 306 321 320 323 324 320 321 317 321 336 325 319 322 322 322 317 318 323 328 326 328 339 340 333 328 324 329 327 327 324 321 316 303 290 285 277 282 282
51 175 308 323 323 315 335 342 342 347 355 2 357 353 351 339 333 329 326 328 331 330 325 327 327 333 341 338 335 337 332 332 330 334 333 331 323 312 299 283 283 268 265
360 33 4 334 344 357 2 2 352 350 2 6 353 4 5 351 348 0 359 355 351 346 343 338 335 332 336 348 344 343 336 334 326 332 329 325 325 311 311 296 283 271 263
32 14 360 0 351 6 8 359 352 351 2 353 3 18 3 349 357 4 13 19 13 6 338 336 339 339 340 340 346 351 351 347 341 345 340 334 346 329 328 321 313 305 293
28 10 0 0 342 3 2 2 358 349 357 40 39 15 1 351 357 5 10 17 20 16 9 355 343 345 355 354 351 353 353 352 358 3 360 342 357 350 353 355 340 327 305
51 25 359 350 352 0 1 3 4 5 40 64 30 6 349 349 353 4 8 10 13 15 18 6 358 9 3 10 9 0 347 1 360 1 1 345 351 344 346 1 352 349 325
37 15 359 357 11 11 8 8 10 31 81 63 57 347 332 358 7 15 10 8 3 8 15 13 17 9 11 6 20 17 360 343 2 357 356 349 350 344 333 338 354 350 347
Wind_Speed_850mb
25 20 24 25 25 25 22 25 24 26 37 36 38 42 43 42 47 50 51 49 56 57 61 54 55 53 55 57 56 55 56 54 54 51 46 47 49 49 48 48 47 47 42
28 26 24 28 28 23 21 26 23 21 25 30 33 36 41 49 52 50 52 54 52 57 56 56 51 54 56 59 60 62 64 62 57 55 52 49 48 47 46 45 45 48 48
27 32 22 20 17 18 22 32 34 37 40 40 42 41 38 43 50 55 48 55 41 52 57 61 59 55 58 63 59 64 67 64 58 54 53 47 45 47 45 44 44 45 45
36 37 31 22 12 25 24 27 25 36 36 35 40 41 40 47 54 53 46 53 57 57 64 59 41 54 60 64 71 69 67 68 65 59 52 46 47 46 41 38 36 36 38
28 32 16 13 20 31 39 33 27 30 35 39 41 40 47 53 57 61 66 56 64 67 83 60 68 61 72 75 77 78 75 77 76 66 50 47 44 42 39 34 32 33 33
17 24 16 23 26 28 27 32 38 43 47 49 53 54 55 57 62 57 49 60 74 72 72 61 66 74 68 76 79 66 69 66 70 71 59 35 41 38 37 38 35 34 33
21 25 23 23 26 29 32 32 35 41 46 43 48 55 58 63 67 65 65 62 61 60 56 50 44 49 57 66 71 72 72 70 75 78 73 34 27 29 33 39 38 40 40
19 23 25 29 28 25 27 32 34 37 41 34 41 52 41 54 52 25 32 40 46 51 48 38 46 51 55 57 61 72 76 81 75 79 78 83 61 56 36 44 52 54 51
27 24 19 19 24 28 10 25 31 34 38 38 27 31 27 18 41 45 30 44 46 53 44 45 49 53 52 55 53 48 51 68 85 80 79 84 93 63 58 53 54 66 64
27 22 15 18 20 14 21 29 32 34 38 37 38 37 34 42 43 44 56 61 54 46 47 52 59 63 63 65 61 41 38 32 37 55 67 80 95 78 49 44 54 76 79
23 23 17 16 14 15 23 22 22 26 25 26 26 33 40 45 47 44 53 55 60 64 69 64 52 57 60 57 53 57 55 51 44 29 36 30 24 39 48 57 73 92 89
22 17 11 9 10 15 20 23 23 24 26 28 30 33 31 36 44 46 58 64 62 61 54 58 59 52 56 62 64 66 73 58 80 64 73 80 66 68 75 80 88 90 92
14 13 8 9 15 19 20 21 22 25 27 33 37 37 36 37 39 39 48 59 54 55 55 48 49 47 40 39 46 48 47 49 57 60 68 69 74 77 78 81 88 89 89
13 4 7 10 12 15 20 22 21 27 33 35 34 35 35 32 35 37 42 48 59 54 54 57 52 58 62 66 55 55 56 44 46 50 60 69 75 82 89 91 97 101 98
3 4 7 12 18 22 26 29 25 24 34 35 34 33 39 42 34 43 44 41 48 57 56 57 62 54 54 64 71 74 76 79 80 82 85 90 95 92 84 78 76 74 76
2 7 12 16 20 24 29 35 33 30 28 31 37 38 36 42 44 39 39 43 47 55 58 53 56 70 66 66 66 70 73 73 76 77 80 78 70 68 72 78 81 83 79
6 10 14 17 19 20 28 34 33 25 33 35 36 35 38 37 37 41 43 40 44 51 63 69 65 65 68 71 71 68 69 76 78 81 75 80 83 77 80 80 76 62 59
8 10 14 16 16 19 27 22 18 24 23 28 36 39 40 45 41 39 41 45 49 52 57 71 75 80 82 77 72 66 67 62 69 73 73 75 81 86 83 77 64 61 60
11 14 16 18 18 13 17 23 33 40 35 25 33 39 36 34 35 39 42 50 54 59 61 68 79 74 75 72 70 72 73 75 75 76 77 72 72 80 79 81 72 66 60
14 17 16 7 11 25 28 30 35 37 34 27 29 31 22 31 39 42 50 54 56 61 60 61 65 64 70 76 77 81 83 74 78 80 68 63 56 49 51 54 50 50 53
8 0 7 17 16 26 28 30 30 31 24 25 25 28 23 24 29 43 53 55 52 50 54 56 61 65 71 78 86 79 82 80 85 78 68 62 58 53 48 49 54 48 43
10 13 13 21 21 26 25 29 32 31 23 26 28 26 24 30 41 47 48 35 38 44 43 47 57 61 75 72 78 77 79 72 60 63 62 54 45 46 44 50 65 75 74
16 16 21 24 25 24 25 29 31 29 25 26 19 20 30 36 44 48 50 58 42 35 35 42 52 60 69 69 66 65 71 65 59 55 48 59 44 46 48 51 46 39 41
14 17 21 22 24 21 26 29 31 27 22 16 21 27 31 42 40 47 51 58 54 58 45 40 42 43 52 56 54 51 66 69 60 48 44 42 50 56 61 43 41 51 45
15 18 21 22 18 24 25 31 34 28 15 17 18 25 31 38 34 46 51 58 59 55 63 50 31 29 44 54 53 50 50 66 69 55 55 54 55 69 81 56 77 59 49
14 16 16 23 25 24 25 31 35 27 19 18 18 22 22 23 29 45 53 57 60 59 60 66 54 37 38 45 59 57 54 55 66 46 58 58 71 75 49 55 58 55 43
Wind_Direction_850mb
203 223 203 231 272 294 296 300 293 286 287 287 279 279 288 279 279 277 276 274 282 291 291 290 297 293 281 277 274 270 269 268 270 267 265 269 271 269 268 269 268 266 264
196 227 213 217 232 228 255 271 269 269 266 272 277 280 283 285 283 279 273 272 275 277 290 291 290 293 295 278 272 270 267 266 263 265 264 266 268 268 268 267 267 266 267
209 225 219 229 246 266 267 274 276 281 284 281 286 291 293 285 281 280 285 275 268 290 286 289 290 284 279 281 277 270 265 262 262 261 265 264 265 268 269 269 269 266 266
213 223 224 222 242 261 254 259 270 283 281 289 286 286 282 284 284 278 281 292 289 286 291 275 299 289 289 285 280 276 267 259 254 251 257 260 264 265 263 265 267 266 268
234 230 230 222 267 261 269 294 293 278 280 285 296 300 289 286 282 285 281 283 284 288 282 326 304 288 286 279 278 277 272 265 254 241 242 253 258 260 264 261 264 270 270
238 240 233 229 253 270 267 277 282 282 287 295 295 288 282 280 280 292 292 285 293 296 297 310 293 298 292 291 284 277 272 264 255 244 232 250 254 254 262 269 271 271 271
208 237 243 246 255 267 284 297 298 296 297 303 303 300 295 289 286 284 289 289 294 304 303 302 309 322 319 300 285 279 275 272 270 264 248 221 272 267 265 281 278 272 276
219 216 235 239 257 269 289 299 299 298 296 301 298 303 305 304 310 296 287 288 294 302 309 305 312 319 323 319 302 283 279 274 265 264 258 229 233 235 229 265 281 278 275
216 230 240 250 260 273 286 276 285 292 296 301 309 296 297 290 303 304 294 301 300 303 310 311 310 310 314 314 315 315 300 292 270 262 261 251 232 225 238 236 269 277 276
210 228 243 253 278 287 278 285 284 290 300 302 294 290 289 292 294 297 296 300 312 305 303 308 306 302 302 312 307 300 297 300 297 281 274 257 241 227 242 247 271 273 271
202 218 228 254 276 262 280 293 297 307 308 308 314 312 307 307 304 300 302 303 296 295 299 305 300 306 307 307 301 300 290 283 280 277 278 271 245 239 249 256 255 261 261
200 204 217 244 262 282 301 304 309 307 313 309 312 307 306 312 314 314 310 309 308 302 298 301 308 312 298 306 303 304 294 271 261 258 251 254 253 252 254 255 260 265 267
220 188 217 274 308 312 315 317 319 309 310 307 309 308 305 294 293 298 309 307 308 313 314 318 318 313 309 308 315 320 313 303 289 283 279 275 269 266 266 269 270 269 267
218 243 297 314 323 325 322 321 324 315 311 316 319 321 321 325 309 300 307 312 315 312 311 310 305 299 295 300 303 299 302 294 294 287 281 278 277 279 278 279 276 274 271
36 31 345 338 335 329 328 327 329 324 314 326 329 326 311 315 319 305 311 313 313 313 313 311 310 314 305 299 296 296 297 297 298 294 291 288 287 288 287 286 285 281 276
174 1 348 341 342 339 330 328 333 342 347 323 329 332 337 325 324 330 320 313 309 304 300 313 309 305 310 309 309 310 308 305 302 302 300 299 295 294 288 289 291 291 287
33 355 349 349 351 345 325 340 351 347 342 340 338 333 327 322 321 317 317 314 312 307 312 304 308 312 313 317 316 315 308 311 308 304 299 291 291 288 284 285 288 284 281
17 10 356 1 357 348 356 340 310 317 318 319 316 312 314 315 315 318 317 319 317 317 316 312 315 319 321 324 324 324 323 316 317 312 303 295 286 282 281 290 281 285 280
17 9 1 16 4 315 305 303 317 326 323 316 312 315 323 333 326 324 322 321 318 318 319 318 318 321 323 327 331 329 329 327 322 319 318 309 296 283 281 281 278 276 284
31 28 14 311 318 306 321 320 323 324 320 321 317 321 336 325 319 322 322 322 317 318 323 328 326 328 339 340 333 328 324 329 327 327 324 321 316 303 290 285 277 282 282
51 175 308 323 323 315 335 342 342 347 355 2 357 353 351 339 333 329 326 328 331 330 325 327 327 333 341 338 335 337 332 332 330 334 333 331 323 312 299 283 283 268 265
360 33 4 334 344 357 2 2 352 350 2 6 353 4 5 351 348 0 359 355 351 346 343 338 335 332 336 348 344 343 336 334 326 332 329 325 325 311 311 296 283 271 263
32 14 360 0 351 6 8 359 352 351 2 353 3 18 3 349 357 4 13 19 13 6 338 336 339 339 340 340 346 351 351 347 341 345 340 334 346 329 328 321 313 305 293
28 10 0 0 342 3 2 2 358 349 357 40 39 15 1 351 357 5 10 17 20 16 9 355 343 345 355 354 351 353 353 352 358 3 360 342 357 350 353 355 340 327 305
51 25 359 350 352 0 1 3 4 5 40 64 30 6 349 349 353 4 8 10 13 15 18 6 358 9 3 10 9 0 347 1 360 1 1 345 351 344 346 1 352 349 325
37 15 359 357 11 11 8 8 10 31 81 63 57 347 332 358 7 15 10 8 3 8 15 13 17 9 11 6 20 17 360 343 2 357 356 349 350 344 333 338 354 350 347